GFSNIL_sfc_dewp_315.txt.gz
Dewpoint
19 20 19 18 18 17 18 18 18 18 18 18 18 18 18 18 17 17 17 17 17 17
19 19 19 19 18 17 17 17 18 18 17 17 17 17 17 16 16 16 16 16 17 17
21 20 19 18 17 18 19 19 19 18 17 17 16 17 16 16 16 16 16 16 16 17
23 23 19 21 18 18 18 18 19 18 17 16 16 16 16 16 16 16 16 16 16 16
28 26 25 21 22 19 18 18 16 16 16 16 16 16 16 16 15 16 16 16 16 16
28 28 27 26 22 25 20 17 16 16 17 16 17 16 17 16 16 16 16 16 16 16
27 28 27 26 25 24 26 22 19 17 17 18 16 16 16 15 15 15 15 17 17 18
23 26 27 26 26 24 23 25 22 20 18 17 16 15 16 15 15 15 15 18 18 20
18 20 23 24 25 24 23 23 25 21 23 21 16 18 19 21 24 24 25 24 22 21
15 15 17 19 21 23 23 23 22 23 22 22 19 20 22 22 21 23 23 23 22 21
15 14 17 19 18 19 22 23 22 22 22 22 19 20 21 22 22 23 21 21 21 22
21 24 20 15 13 15 21 21 22 21 21 20 21 21 21 21 21 20 19 19 19 19
20 18 17 14 17 15 17 19 18 19 21 21 21 21 22 21 22 22 19 19 18 21
15 17 15 16 15 17 17 17 18 18 19 20 21 21 22 22 21 21 20 20 19 20

GFSNIL_sfc_dewp_318.txt.gz
Dewpoint
21 22 21 20 20 21 20 21 21 21 21 22 22 21 20 19 18 17 18 17 18 19
22 21 21 20 20 20 21 19 20 19 19 19 19 18 18 18 17 17 17 17 18 18
22 21 21 20 20 20 20 19 19 19 18 18 18 17 17 17 17 17 18 17 17 17
24 23 21 22 21 21 22 21 21 20 19 18 18 17 17 17 17 17 17 17 17 17
26 25 25 23 23 21 20 20 20 19 18 18 18 17 17 17 16 17 18 17 17 17
27 27 26 26 24 25 21 19 18 18 19 18 18 18 18 18 18 18 18 18 18 18
26 27 26 26 25 25 25 21 18 18 18 19 18 18 18 17 16 16 17 18 18 18
26 27 27 26 25 25 24 24 21 20 19 18 17 16 17 16 16 15 16 17 19 20
24 25 25 25 25 24 23 23 20 21 21 21 18 19 21 20 20 23 22 22 22 22
22 22 22 23 23 22 20 20 21 17 19 17 20 22 22 22 22 23 23 23 23 22
18 18 19 20 21 21 21 17 17 18 18 16 20 22 22 22 22 22 22 21 21 22
21 22 24 23 19 19 21 20 18 19 15 11 16 21 22 21 21 21 20 20 20 20
26 25 22 17 18 17 17 19 20 20 17 19 15 22 22 21 22 20 20 20 20 23
19 19 17 17 16 15 14 16 12 16 16 13 15 17 22 23 21 20 20 19 18 19

GFSNIL_sfc_dewp_321.txt.gz
Dewpoint
21 21 21 21 21 21 21 21 21 22 22 22 22 21 20 19 19 18 18 17 18 19
22 21 21 21 21 21 22 20 20 20 20 20 19 19 18 18 17 17 18 18 18 18
23 21 21 21 21 21 20 21 20 20 19 19 18 18 18 18 17 17 18 18 17 18
24 23 21 22 21 21 21 20 20 20 20 19 18 17 17 17 18 17 17 17 16 17
26 25 25 23 24 23 22 22 21 20 20 20 19 18 17 17 17 17 17 17 17 17
26 26 25 25 25 27 26 22 20 20 19 19 19 18 18 18 18 18 18 18 18 18
25 26 25 26 26 25 25 22 20 20 20 19 19 18 18 17 17 17 17 18 19 18
25 26 26 25 25 25 24 24 21 21 20 19 18 17 18 17 16 15 16 17 18 20
25 24 24 25 24 25 24 23 21 22 22 22 17 19 21 21 21 23 22 21 21 22
25 26 26 26 25 23 20 20 21 19 20 19 20 22 22 23 23 23 22 23 23 22
23 23 23 23 22 21 20 20 21 20 16 16 20 22 22 23 22 23 22 21 22 22
20 21 23 20 20 21 20 20 16 18 16 14 18 22 22 22 22 22 21 21 21 21
23 23 23 23 22 19 19 20 21 21 15 19 14 22 23 22 22 20 20 19 19 23
23 22 19 19 18 16 16 15 12 16 15 11 14 16 22 22 21 22 22 21 20 19

GFSNIL_sfc_dewp_327.txt.gz
Dewpoint
22 22 22 22 22 21 21 21 22 22 22 22 21 21 20 20 20 19 19 18 19 20
23 22 22 22 21 21 21 21 22 21 20 19 19 19 18 19 18 19 19 19 19 19
23 23 22 22 21 21 21 21 21 21 20 19 19 19 19 18 18 18 19 18 18 19
24 23 22 23 22 22 22 21 21 21 20 19 19 18 18 18 18 18 17 17 17 18
24 24 24 23 23 23 22 22 21 21 20 20 19 18 18 18 18 17 17 17 17 17
24 23 24 24 24 24 25 26 27 27 25 20 20 18 18 18 18 17 18 18 17 17
22 23 24 26 26 27 27 27 27 26 21 21 20 19 18 18 18 18 17 18 18 18
23 23 24 27 27 27 27 25 23 22 21 20 19 18 19 18 18 17 16 17 17 19
23 23 23 25 26 25 24 23 23 22 22 21 18 20 22 21 23 22 22 20 19 20
24 24 25 26 24 22 22 21 20 18 21 21 20 21 21 22 23 23 22 21 21 20
23 24 24 24 23 20 19 19 19 19 19 18 20 21 21 22 23 24 22 21 21 21
24 24 24 23 23 22 20 18 15 20 16 12 16 21 21 22 22 22 21 22 21 21
23 23 23 23 23 23 19 20 21 22 16 19 12 22 22 22 22 19 20 20 20 23
22 21 21 20 20 21 20 21 16 17 15 11 12 14 21 22 21 21 20 21 20 20